This is the latest recevied weather packets stored in our database for station/object SP6PWT-13. If no packets are shown the sender has not sent any weather packets the latest 10 day(s).
| Time | Temp. | Humidity | Pressure | Rain* | Wind** | Luminosity | Snow |
|---|---|---|---|---|---|---|---|
| 1777700990 | 12.78° C | 67% | 1008.9 hPa | 0 mm | - | 203 W/m² | - |
| 1777700689 | 12.22° C | 68% | 1008.9 hPa | 0 mm | - | 192 W/m² | - |
| 1777700388 | 11.67° C | 68% | 1008.8 hPa | 0 mm | - | 142 W/m² | - |
| 1777700088 | 11.67° C | 70% | 1008.8 hPa | 0 mm | - | 45 W/m² | - |
| 1777699787 | 11.11° C | 72% | 1008.9 hPa | 0 mm | - | 43 W/m² | - |
| 1777699486 | 11.11° C | 74% | 1008.9 hPa | 0 mm | - | 41 W/m² | - |
| 1777699185 | 10.56° C | 75% | 1009 hPa | 0 mm | - | 41 W/m² | - |
| 1777698885 | 10.56° C | 75% | 1008.8 hPa | 0 mm | - | 39 W/m² | - |
| 1777698584 | 10° C | 76% | 1008.6 hPa | 0 mm | - | 38 W/m² | - |
| 1777698284 | 10° C | 75% | 1008.8 hPa | 0 mm | - | 38 W/m² | - |
| 1777697984 | 10° C | 76% | 1008.7 hPa | 0 mm | - | 38 W/m² | - |
| 1777697683 | 9.44° C | 77% | 1008.8 hPa | 0 mm | - | 74 W/m² | - |
| 1777697382 | 8.89° C | 77% | 1008.7 hPa | 0 mm | - | 68 W/m² | - |
| 1777697082 | 10° C | 74% | 1008.7 hPa | 0 mm | - | 62 W/m² | - |
| 1777696781 | 10° C | 74% | 1008.7 hPa | 0 mm | - | 56 W/m² | - |
| 1777696481 | 10.56° C | 71% | 1008.6 hPa | 0 mm | - | 51 W/m² | - |
| 1777696180 | 10.56° C | 72% | 1008.7 hPa | 0 mm | - | 45 W/m² | - |
| 1777695880 | 10.56° C | 73% | 1008.7 hPa | 0 mm | - | 40 W/m² | - |
| 1777695580 | 10° C | 75% | 1008.6 hPa | 0 mm | - | 35 W/m² | - |
| 1777695279 | 10° C | 76% | 1008.6 hPa | 0 mm | - | 31 W/m² | - |
| 1777694978 | 10° C | 75% | 1008.5 hPa | 0 mm | - | 26 W/m² | - |
| 1777694678 | 10° C | 77% | 1008.7 hPa | 0 mm | - | 23 W/m² | - |
| 1777694378 | 10° C | 76% | 1008.6 hPa | 0 mm | - | 20 W/m² | - |
| 1777694078 | 10° C | 76% | 1008.6 hPa | 0 mm | - | 17 W/m² | - |
| 1777693778 | 10° C | 76% | 1008.7 hPa | 0 mm | - | 14 W/m² | - |
* Rain latest hour (hover to see other rain measurements)
** Current wind speed in m/s (hover to see current wind gust speed)